Time,TemperatureF,DewpointF,PressureIn,WindDirection,WindDirectionDegrees,WindSpeedMPH,WindSpeedGustMPH,Humidity,HourlyPrecipIn,Conditions,Clouds,dailyrainin,SoftwareType,DateUTC
2013-04-05 00:00:00,32.2,24.5,30.21,NW,321,4.0,11.0,73,0.00,,,0.00,VWS V14.01,2013-04-05 05:00:00,
2013-04-05 00:03:00,32.1,24.4,30.21,NW,321,3.0,5.0,73,0.00,,,0.00,VWS V14.01,2013-04-05 05:03:00,
2013-04-05 00:08:00,32.0,24.7,30.21,NW,321,0.0,5.0,74,0.00,,,0.00,VWS V14.01,2013-04-05 05:08:00,
2013-04-05 00:14:00,31.9,24.6,30.21,NW,319,2.0,6.0,74,0.00,,,0.00,VWS V14.01,2013-04-05 05:14:00,
2013-04-05 00:19:00,31.8,24.5,30.21,NW,321,0.0,7.0,74,0.00,,,0.00,VWS V14.01,2013-04-05 05:19:00,
2013-04-05 00:25:00,31.7,24.4,30.22,NW,318,3.0,7.0,74,0.00,,,0.00,VWS V14.01,2013-04-05 05:25:00,
2013-04-05 00:30:00,31.6,24.3,30.22,NW,317,4.0,7.0,74,0.00,,,0.00,VWS V14.01,2013-04-05 05:30:00,
2013-04-05 00:35:00,31.5,24.2,30.22,NW,318,0.0,5.0,74,0.00,,,0.00,VWS V14.01,2013-04-05 05:35:00,
2013-04-05 00:40:00,31.4,24.1,30.22,NW,318,3.0,6.0,74,0.00,,,0.00,VWS V14.01,2013-04-05 05:40:00,
2013-04-05 00:45:00,31.3,24.0,30.22,NW,317,0.0,6.0,74,0.00,,,0.00,VWS V14.01,2013-04-05 05:45:00,
2013-04-05 00:50:00,31.2,23.9,30.22,NW,317,0.0,6.0,74,0.00,,,0.00,VWS V14.01,2013-04-05 05:50:00,
2013-04-05 00:56:00,31.0,24.0,30.22,NW,316,0.0,7.0,75,0.00,,,0.00,VWS V14.01,2013-04-05 05:56:00,
2013-04-05 01:00:00,30.9,23.9,30.22,NW,317,0.0,7.0,75,0.00,,,0.00,VWS V14.01,2013-04-05 06:00:00,
2013-04-05 01:01:00,30.9,23.9,30.22,NW,317,0.0,0.0,75,0.00,,,0.00,VWS V14.01,2013-04-05 06:01:00,
2013-04-05 01:06:00,30.8,23.8,30.22,NW,318,0.0,6.0,75,0.00,,,0.00,VWS V14.01,2013-04-05 06:06:00,
2013-04-05 01:12:00,30.6,24.0,30.22,NW,318,2.0,6.0,76,0.00,,,0.00,VWS V14.01,2013-04-05 06:12:00,
2013-04-05 01:17:00,30.5,23.9,30.22,NW,319,4.0,6.0,76,0.00,,,0.00,VWS V14.01,2013-04-05 06:17:00,
2013-04-05 01:22:00,30.4,23.8,30.22,NW,319,0.0,6.0,76,0.00,,,0.00,VWS V14.01,2013-04-05 06:22:00,
2013-04-05 01:28:00,30.3,23.7,30.23,NW,318,0.0,6.0,76,0.00,,,0.00,VWS V14.01,2013-04-05 06:28:00,
2013-04-05 01:30:00,30.3,23.7,30.23,WSW,245,2.0,6.0,76,0.00,,,0.00,VWS V14.01,2013-04-05 06:30:00,
2013-04-05 01:34:00,30.3,23.7,30.23,NW,319,0.0,2.0,76,0.00,,,0.00,VWS V14.01,2013-04-05 06:34:00,
2013-04-05 01:40:00,30.2,23.6,30.23,NW,319,0.0,5.0,76,0.00,,,0.00,VWS V14.01,2013-04-05 06:40:00,
2013-04-05 01:45:00,30.2,23.6,30.23,NW,319,1.0,5.0,76,0.00,,,0.00,VWS V14.01,2013-04-05 06:45:00,
2013-04-05 01:50:00,30.1,23.5,30.23,NW,319,3.0,5.0,76,0.00,,,0.00,VWS V14.01,2013-04-05 06:50:00,
2013-04-05 01:55:00,29.9,23.3,30.24,NW,319,0.0,5.0,76,0.00,,,0.00,VWS V14.01,2013-04-05 06:55:00,
2013-04-05 02:00:00,29.9,23.3,30.23,NW,318,1.0,6.0,76,0.00,,,0.00,VWS V14.01,2013-04-05 07:00:00,
2013-04-05 02:01:00,29.9,23.3,30.23,NW,318,1.0,6.0,76,0.00,,,0.00,VWS V14.01,2013-04-05 07:01:00,
2013-04-05 02:06:00,29.8,23.2,30.23,NW,318,1.0,3.0,76,0.00,,,0.00,VWS V14.01,2013-04-05 07:06:00,
2013-04-05 02:11:00,29.7,23.1,30.23,NW,318,2.0,4.0,76,0.00,,,0.00,VWS V14.01,2013-04-05 07:11:00,
2013-04-05 02:17:00,29.6,23.0,30.23,NW,318,0.0,5.0,76,0.00,,,0.00,VWS V14.01,2013-04-05 07:17:00,
2013-04-05 02:22:00,29.5,22.9,30.23,NW,318,2.0,5.0,76,0.00,,,0.00,VWS V14.01,2013-04-05 07:22:00,
2013-04-05 02:27:00,29.4,23.1,30.24,NW,318,0.0,5.0,77,0.00,,,0.00,VWS V14.01,2013-04-05 07:27:00,
2013-04-05 02:30:00,29.3,23.0,30.24,NW,318,0.0,5.0,77,0.00,,,0.00,VWS V14.01,2013-04-05 07:30:00,
2013-04-05 02:33:00,29.3,23.0,30.24,NW,318,1.0,3.0,77,0.00,,,0.00,VWS V14.01,2013-04-05 07:33:00,
2013-04-05 02:38:00,29.2,22.9,30.24,NW,318,0.0,3.0,77,0.00,,,0.00,VWS V14.01,2013-04-05 07:38:00,
2013-04-05 02:43:00,29.1,22.8,30.23,NW,318,0.0,4.0,77,0.00,,,0.00,VWS V14.01,2013-04-05 07:43:00,
2013-04-05 02:49:00,29.1,22.8,30.24,NW,318,0.0,4.0,77,0.00,,,0.00,VWS V14.01,2013-04-05 07:49:00,
2013-04-05 02:54:00,29.0,22.7,30.24,NW,317,0.0,4.0,77,0.00,,,0.00,VWS V14.01,2013-04-05 07:54:00,
2013-04-05 02:59:00,28.9,22.6,30.24,NW,318,0.0,4.0,77,0.00,,,0.00,VWS V14.01,2013-04-05 07:59:00,
2013-04-05 03:00:00,28.8,22.5,30.24,NW,318,0.0,4.0,77,0.00,,,0.00,VWS V14.01,2013-04-05 08:00:00,
2013-04-05 03:04:00,28.7,22.4,30.24,NW,318,0.0,3.0,77,0.00,,,0.00,VWS V14.01,2013-04-05 08:04:00,
2013-04-05 03:09:00,28.7,22.4,30.24,NW,318,3.0,4.0,77,0.00,,,0.00,VWS V14.01,2013-04-05 08:09:00,
2013-04-05 03:15:00,28.5,22.5,30.24,NW,318,0.0,4.0,78,0.00,,,0.00,VWS V14.01,2013-04-05 08:15:00,
2013-04-05 03:25:00,28.4,22.4,30.24,NW,318,1.0,1.0,78,0.00,,,0.00,VWS V14.01,2013-04-05 08:25:00,
2013-04-05 03:30:00,28.3,22.3,30.24,NW,318,0.0,4.0,78,0.00,,,0.00,VWS V14.01,2013-04-05 08:30:00,
2013-04-05 03:35:00,28.1,22.1,30.24,NW,318,0.0,2.0,78,0.00,,,0.00,VWS V14.01,2013-04-05 08:35:00,
2013-04-05 03:41:00,28.0,22.0,30.24,NW,317,0.0,2.0,78,0.00,,,0.00,VWS V14.01,2013-04-05 08:41:00,
2013-04-05 03:46:00,27.8,21.9,30.24,NW,318,0.0,2.0,78,0.00,,,0.00,VWS V14.01,2013-04-05 08:46:00,
2013-04-05 03:52:00,27.6,22.0,30.25,NW,319,0.0,2.0,79,0.00,,,0.00,VWS V14.01,2013-04-05 08:52:00,
2013-04-05 03:57:00,27.5,21.9,30.25,NW,318,0.0,2.0,79,0.00,,,0.00,VWS V14.01,2013-04-05 08:57:00,
2013-04-05 04:02:00,27.4,21.8,30.25,NW,318,0.0,0.0,79,0.00,,,0.00,VWS V14.01,2013-04-05 09:02:00,
2013-04-05 04:07:00,27.3,21.7,30.25,NW,318,3.0,4.0,79,0.00,,,0.00,VWS V14.01,2013-04-05 09:07:00,
2013-04-05 04:12:00,27.3,21.7,30.25,NW,318,0.0,4.0,79,0.00,,,0.00,VWS V14.01,2013-04-05 09:12:00,
2013-04-05 04:18:00,27.4,21.8,30.25,NW,318,0.0,5.0,79,0.00,,,0.00,VWS V14.01,2013-04-05 09:18:00,
2013-04-05 04:23:00,27.5,21.9,30.25,NW,318,4.0,5.0,79,0.00,,,0.00,VWS V14.01,2013-04-05 09:23:00,
2013-04-05 04:29:00,27.6,22.0,30.25,NW,318,0.0,5.0,79,0.00,,,0.00,VWS V14.01,2013-04-05 09:29:00,
2013-04-05 04:34:00,27.6,22.0,30.26,NW,318,0.0,4.0,79,0.00,,,0.00,VWS V14.01,2013-04-05 09:34:00,
2013-04-05 04:39:00,27.6,21.6,30.26,NW,318,0.0,4.0,78,0.00,,,0.00,VWS V14.01,2013-04-05 09:39:00,
2013-04-05 04:44:00,27.6,21.6,30.26,NW,318,0.0,4.0,78,0.00,,,0.00,VWS V14.01,2013-04-05 09:44:00,
2013-04-05 04:50:00,27.5,21.5,30.26,NW,318,0.0,4.0,78,0.00,,,0.00,VWS V14.01,2013-04-05 09:50:00,
2013-04-05 04:55:00,27.4,21.5,30.26,NW,318,0.0,4.0,78,0.00,,,0.00,VWS V14.01,2013-04-05 09:55:00,
2013-04-05 05:00:00,27.2,21.3,30.26,NW,318,0.0,4.0,78,0.00,,,0.00,VWS V14.01,2013-04-05 10:00:00,
2013-04-05 05:06:00,27.0,21.1,30.26,NW,319,0.0,0.0,78,0.00,,,0.00,VWS V14.01,2013-04-05 10:06:00,
2013-04-05 05:12:00,26.9,21.3,30.26,NW,317,0.0,0.0,79,0.00,,,0.00,VWS V14.01,2013-04-05 10:12:00,
2013-04-05 05:17:00,26.8,21.2,30.26,NW,318,0.0,0.0,79,0.00,,,0.00,VWS V14.01,2013-04-05 10:17:00,
2013-04-05 05:23:00,26.6,21.0,30.26,NW,317,0.0,0.0,79,0.00,,,0.00,VWS V14.01,2013-04-05 10:23:00,
2013-04-05 05:28:00,26.6,21.0,30.26,NW,317,3.0,4.0,79,0.00,,,0.00,VWS V14.01,2013-04-05 10:28:00,
2013-04-05 05:30:00,26.7,21.1,30.26,NW,318,0.0,4.0,79,0.00,,,0.00,VWS V15.00,2013-04-05 10:30:00,
2013-04-05 05:33:00,26.8,21.2,30.26,NW,318,0.0,3.0,79,0.00,,,0.00,VWS V14.01,2013-04-05 10:33:00,
2013-04-05 05:38:00,26.8,21.2,30.26,NW,319,1.0,3.0,79,0.00,,,0.00,VWS V14.01,2013-04-05 10:38:00,
2013-04-05 05:43:00,26.8,21.2,30.26,NW,318,0.0,3.0,79,0.00,,,0.00,VWS V14.01,2013-04-05 10:43:00,
2013-04-05 05:49:00,26.7,21.1,30.26,NW,319,0.0,3.0,79,0.00,,,0.00,VWS V14.01,2013-04-05 10:49:00,
2013-04-05 05:54:00,26.7,21.1,30.26,NW,319,0.0,4.0,79,0.00,,,0.00,VWS V14.01,2013-04-05 10:54:00,
2013-04-05 06:00:00,26.6,21.0,30.26,NW,318,1.0,4.0,79,0.00,,,0.00,VWS V14.01,2013-04-05 11:00:00,
2013-04-05 06:05:00,26.6,21.0,30.26,NW,318,0.0,4.0,79,0.00,,,0.00,VWS V14.01,2013-04-05 11:05:00,
2013-04-05 06:10:00,26.6,21.0,30.26,NW,318,2.0,4.0,79,0.00,,,0.00,VWS V14.01,2013-04-05 11:10:00,
2013-04-05 06:16:00,26.5,20.9,30.26,NW,318,0.0,4.0,79,0.00,,,0.00,VWS V14.01,2013-04-05 11:16:00,
2013-04-05 06:21:00,26.5,20.9,30.26,NW,320,0.0,5.0,79,0.00,,,0.00,VWS V14.01,2013-04-05 11:21:00,
2013-04-05 06:27:00,26.4,20.8,30.26,NW,320,0.0,5.0,79,0.00,,,0.00,VWS V14.01,2013-04-05 11:27:00,
2013-04-05 06:30:00,26.4,20.8,30.26,NW,320,0.0,5.0,79,0.00,,,0.00,VWS V15.00,2013-04-05 11:30:00,
2013-04-05 06:32:00,26.3,20.7,30.26,NW,320,0.0,0.0,79,0.00,,,0.00,VWS V14.01,2013-04-05 11:32:00,
2013-04-05 06:37:00,26.3,20.7,30.26,NW,319,0.0,2.0,79,0.00,,,0.00,VWS V14.01,2013-04-05 11:37:00,
2013-04-05 06:42:00,26.3,20.7,30.26,NW,319,0.0,2.0,79,0.00,,,0.00,VWS V14.01,2013-04-05 11:42:00,
2013-04-05 06:48:00,26.2,20.6,30.26,NW,319,0.0,2.0,79,0.00,,,0.00,VWS V14.01,2013-04-05 11:48:00,
2013-04-05 06:53:00,26.1,20.2,30.26,NW,320,0.0,2.0,78,0.00,,,0.00,VWS V14.01,2013-04-05 11:53:00,
2013-04-05 06:59:00,26.0,20.1,30.26,NW,320,0.0,2.0,78,0.00,,,0.00,VWS V14.01,2013-04-05 11:59:00,
2013-04-05 07:04:00,26.0,20.1,30.26,NW,319,0.0,0.0,78,0.00,,,0.00,VWS V14.01,2013-04-05 12:04:00,
2013-04-05 07:09:00,26.0,20.1,30.26,NW,319,0.0,0.0,78,0.00,,,0.00,VWS V14.01,2013-04-05 12:09:00,
2013-04-05 07:15:00,26.1,20.2,30.26,NW,319,0.0,0.0,78,0.00,,,0.00,VWS V14.01,2013-04-05 12:15:00,
2013-04-05 07:20:00,26.2,20.3,30.26,NW,320,0.0,0.0,78,0.00,,,0.00,VWS V14.01,2013-04-05 12:20:00,
2013-04-05 07:25:00,26.5,20.6,30.26,NW,319,0.0,0.0,78,0.00,,,0.00,VWS V14.01,2013-04-05 12:25:00,
2013-04-05 07:30:00,27.0,20.8,30.27,NW,320,0.0,0.0,77,0.00,,,0.00,VWS V14.01,2013-04-05 12:30:00,
2013-04-05 07:36:00,27.6,21.0,30.27,NW,320,0.0,0.0,76,0.00,,,0.00,VWS V14.01,2013-04-05 12:36:00,
2013-04-05 07:41:00,28.1,21.2,30.27,NW,319,0.0,0.0,75,0.00,,,0.00,VWS V14.01,2013-04-05 12:41:00,
2013-04-05 07:46:00,28.5,21.3,30.26,NW,325,0.0,4.0,74,0.00,,,0.00,VWS V14.01,2013-04-05 12:46:00,
2013-04-05 07:52:00,28.9,21.4,30.26,NE,42,4.0,5.0,73,0.00,,,0.00,VWS V14.01,2013-04-05 12:52:00,
2013-04-05 07:58:00,29.2,21.0,30.26,NNE,29,3.0,10.0,71,0.00,,,0.00,VWS V14.01,2013-04-05 12:58:00,
2013-04-05 08:03:00,29.3,21.1,30.26,NE,39,4.0,11.0,71,0.00,,,0.00,VWS V14.01,2013-04-05 13:03:00,
2013-04-05 08:08:00,29.5,20.9,30.26,ENE,58,6.0,11.0,70,0.00,,,0.00,VWS V14.01,2013-04-05 13:08:00,
2013-04-05 08:14:00,29.7,21.1,30.26,NNE,17,5.0,11.0,70,0.00,,,0.00,VWS V14.01,2013-04-05 13:14:00,
2013-04-05 08:20:00,30.2,21.3,30.26,NE,46,4.0,11.0,69,0.00,,,0.00,VWS V14.01,2013-04-05 13:20:00,
2013-04-05 08:25:00,30.6,21.6,30.26,NE,37,0.0,11.0,69,0.00,,,0.00,VWS V14.01,2013-04-05 13:25:00,
2013-04-05 08:31:00,30.9,23.0,30.26,NE,48,3.0,11.0,72,0.00,,,0.00,VWS V14.01,2013-04-05 13:31:00,
2013-04-05 08:36:00,31.1,21.1,30.26,NNE,27,3.0,10.0,66,0.00,,,0.00,VWS V14.01,2013-04-05 13:36:00,
2013-04-05 08:41:00,31.5,21.8,30.25,NE,41,1.0,10.0,67,0.00,,,0.00,VWS V14.01,2013-04-05 13:41:00,
2013-04-05 08:46:00,31.7,21.3,30.25,ENE,60,2.0,10.0,65,0.00,,,0.00,VWS V14.01,2013-04-05 13:46:00,
2013-04-05 08:51:00,32.1,21.7,30.25,NE,48,5.0,10.0,65,0.00,,,0.00,VWS V14.01,2013-04-05 13:51:00,
2013-04-05 08:56:00,32.3,21.9,30.25,NE,53,2.0,10.0,65,0.00,,,0.00,VWS V14.01,2013-04-05 13:56:00,
2013-04-05 09:02:00,32.7,21.5,30.25,ESE,103,3.0,6.0,63,0.00,,,0.00,VWS V14.01,2013-04-05 14:02:00,
2013-04-05 09:07:00,33.1,21.5,30.25,ENE,65,3.0,9.0,62,0.00,,,0.00,VWS V14.01,2013-04-05 14:07:00,
2013-04-05 09:12:00,33.4,21.0,30.25,ENE,63,2.0,9.0,60,0.00,,,0.00,VWS V14.01,2013-04-05 14:12:00,
2013-04-05 09:18:00,33.7,21.7,30.25,East,97,5.0,9.0,61,0.00,,,0.00,VWS V14.01,2013-04-05 14:18:00,
2013-04-05 09:23:00,34.3,21.9,30.25,East,96,5.0,9.0,60,0.00,,,0.00,VWS V14.01,2013-04-05 14:23:00,
2013-04-05 09:28:00,34.5,21.3,30.25,ENE,61,1.0,9.0,58,0.00,,,0.00,VWS V14.01,2013-04-05 14:28:00,
2013-04-05 09:36:00,34.7,21.5,30.25,East,85,8.0,12.0,58,0.00,,,0.00,VWS V14.01,2013-04-05 14:36:00,
2013-04-05 09:42:00,35.1,21.8,30.25,East,92,6.0,12.0,58,0.00,,,0.00,VWS V14.01,2013-04-05 14:42:00,
2013-04-05 09:47:00,35.2,21.5,30.25,ESE,112,0.0,12.0,57,0.00,,,0.00,VWS V14.01,2013-04-05 14:47:00,
2013-04-05 09:52:00,35.4,21.7,30.24,ESE,102,3.0,12.0,57,0.00,,,0.00,VWS V14.01,2013-04-05 14:52:00,
2013-04-05 09:58:00,35.8,21.6,30.24,East,85,5.0,12.0,56,0.00,,,0.00,VWS V14.01,2013-04-05 14:58:00,
2013-04-05 10:00:00,35.8,21.2,30.24,East,85,4.0,12.0,55,0.00,,,0.00,VWS V15.00,2013-04-05 15:00:00,
2013-04-05 10:03:00,35.9,21.8,30.24,East,81,7.0,11.0,56,0.00,,,0.00,VWS V14.01,2013-04-05 15:03:00,
2013-04-05 10:08:00,36.6,22.4,30.24,ENE,70,2.0,11.0,56,0.00,,,0.00,VWS V14.01,2013-04-05 15:08:00,
2013-04-05 10:13:00,36.7,22.5,30.24,East,97,0.0,11.0,56,0.00,,,0.00,VWS V14.01,2013-04-05 15:13:00,
2013-04-05 10:19:00,37.1,22.4,30.24,East,100,0.0,11.0,55,0.00,,,0.00,VWS V14.01,2013-04-05 15:19:00,
2013-04-05 10:24:00,37.5,22.8,30.25,East,84,0.0,11.0,55,0.00,,,0.00,VWS V14.01,2013-04-05 15:24:00,
2013-04-05 10:30:00,37.9,22.3,30.25,East,79,0.0,11.0,53,0.00,,,0.00,VWS V14.01,2013-04-05 15:30:00,
2013-04-05 10:35:00,38.5,22.4,30.25,East,100,7.0,12.0,52,0.00,,,0.00,VWS V14.01,2013-04-05 15:35:00,
2013-04-05 10:40:00,39.0,22.0,30.25,SE,124,8.0,13.0,50,0.00,,,0.00,VWS V14.01,2013-04-05 15:40:00,
2013-04-05 10:46:00,39.4,22.3,30.25,East,96,5.0,13.0,50,0.00,,,0.00,VWS V14.01,2013-04-05 15:46:00,
2013-04-05 10:51:00,39.6,21.5,30.25,ESE,103,4.0,13.0,48,0.00,,,0.00,VWS V14.01,2013-04-05 15:51:00,
2013-04-05 10:57:00,39.9,22.3,30.25,SE,127,6.0,13.0,49,0.00,,,0.00,VWS V14.01,2013-04-05 15:57:00,
2013-04-05 11:00:00,40.3,22.7,30.25,SSE,156,5.0,13.0,49,0.00,,,0.00,VWS V15.00,2013-04-05 16:00:00,
2013-04-05 11:02:00,40.4,22.8,30.25,SSE,159,6.0,11.0,49,0.00,,,0.00,VWS V14.01,2013-04-05 16:02:00,
2013-04-05 11:07:00,40.4,22.8,30.25,East,92,3.0,11.0,49,0.00,,,0.00,VWS V14.01,2013-04-05 16:07:00,
2013-04-05 11:13:00,40.5,22.4,30.25,ESE,119,2.0,16.0,48,0.00,,,0.00,VWS V14.01,2013-04-05 16:13:00,
2013-04-05 11:18:00,40.6,22.5,30.24,East,97,6.0,16.0,48,0.00,,,0.00,VWS V14.01,2013-04-05 16:18:00,
2013-04-05 11:24:00,40.6,23.0,30.23,SE,128,9.0,16.0,49,0.00,,,0.00,VWS V14.01,2013-04-05 16:24:00,
2013-04-05 11:30:00,40.6,23.0,30.23,ESE,116,7.0,16.0,49,0.00,,,0.00,VWS V14.01,2013-04-05 16:30:00,
2013-04-05 11:35:00,40.5,23.3,30.23,ESE,112,5.0,12.0,50,0.00,,,0.00,VWS V14.01,2013-04-05 16:35:00,
2013-04-05 11:41:00,40.6,23.0,30.22,ESE,110,12.0,13.0,49,0.00,,,0.00,VWS V14.01,2013-04-05 16:41:00,
2013-04-05 11:46:00,40.8,22.6,30.22,South,175,7.0,14.0,48,0.00,,,0.00,VWS V14.01,2013-04-05 16:46:00,
2013-04-05 11:52:00,41.2,23.0,30.22,ESE,123,6.0,16.0,48,0.00,,,0.00,VWS V14.01,2013-04-05 16:52:00,
2013-04-05 11:57:00,41.4,22.2,30.22,ESE,104,6.0,17.0,46,0.00,,,0.00,VWS V14.01,2013-04-05 16:57:00,
2013-04-05 12:03:00,41.6,22.9,30.22,ESE,123,11.0,14.0,47,0.00,,,0.00,VWS V14.01,2013-04-05 17:03:00,
2013-04-05 12:08:00,41.9,23.2,30.22,ESE,112,7.0,17.0,47,0.00,,,0.00,VWS V14.01,2013-04-05 17:08:00,
2013-04-05 12:13:00,42.3,24.0,30.21,SE,125,6.0,17.0,48,0.00,,,0.00,VWS V14.01,2013-04-05 17:13:00,
2013-04-05 12:18:00,42.4,23.1,30.20,East,100,14.0,17.0,46,0.00,,,0.00,VWS V14.01,2013-04-05 17:18:00,
2013-04-05 12:24:00,42.3,22.5,30.20,ESE,115,5.0,18.0,45,0.00,,,0.00,VWS V14.01,2013-04-05 17:24:00,
2013-04-05 12:29:00,42.2,22.9,30.20,ESE,113,9.0,18.0,46,0.00,,,0.00,VWS V14.01,2013-04-05 17:29:00,
2013-04-05 12:34:00,42.1,22.8,30.19,East,84,10.0,15.0,46,0.00,,,0.00,VWS V14.01,2013-04-05 17:34:00,
2013-04-05 12:39:00,41.7,23.0,30.18,East,97,11.0,15.0,47,0.00,,,0.00,VWS V14.01,2013-04-05 17:39:00,
2013-04-05 12:45:00,41.5,23.3,30.19,ESE,117,13.0,15.0,48,0.00,,,0.00,VWS V14.01,2013-04-05 17:45:00,
2013-04-05 12:50:00,41.4,22.7,30.19,SE,135,10.0,16.0,47,0.00,,,0.00,VWS V14.01,2013-04-05 17:50:00,
2013-04-05 12:56:00,41.1,22.9,30.19,SE,137,9.0,16.0,48,0.00,,,0.00,VWS V14.01,2013-04-05 17:56:00,
2013-04-05 13:00:00,41.0,23.3,30.19,SE,144,7.0,16.0,49,0.00,,,0.00,VWS V15.00,2013-04-05 18:00:00,
2013-04-05 13:01:00,41.0,23.3,30.19,ESE,119,6.0,12.0,49,0.00,,,0.00,VWS V14.01,2013-04-05 18:01:00,
2013-04-05 13:07:00,40.9,22.7,30.19,SE,129,4.0,12.0,48,0.00,,,0.00,VWS V14.01,2013-04-05 18:07:00,
2013-04-05 13:12:00,40.9,23.7,30.20,ESE,123,7.0,12.0,50,0.00,,,0.00,VWS V14.01,2013-04-05 18:12:00,
2013-04-05 13:17:00,40.8,23.1,30.20,SSE,148,4.0,14.0,49,0.00,,,0.00,VWS V14.01,2013-04-05 18:17:00,
2013-04-05 13:23:00,40.8,23.6,30.20,East,100,5.0,14.0,50,0.00,,,0.00,VWS V14.01,2013-04-05 18:23:00,
2013-04-05 13:28:00,40.8,24.1,30.20,SE,142,5.0,14.0,51,0.00,,,0.00,VWS V14.01,2013-04-05 18:28:00,
2013-04-05 13:30:00,40.9,24.2,30.20,SE,141,4.0,14.0,51,0.00,,,0.00,VWS V15.00,2013-04-05 18:30:00,
2013-04-05 13:33:00,40.9,24.6,30.20,East,94,7.0,12.0,52,0.00,,,0.00,VWS V14.01,2013-04-05 18:33:00,
2013-04-05 13:38:00,40.8,24.1,30.20,SE,133,5.0,12.0,51,0.00,,,0.00,VWS V14.01,2013-04-05 18:38:00,
2013-04-05 13:44:00,40.8,24.5,30.20,SE,130,6.0,12.0,52,0.00,,,0.00,VWS V14.01,2013-04-05 18:44:00,
2013-04-05 13:49:00,40.8,24.1,30.19,SE,133,1.0,12.0,51,0.00,,,0.00,VWS V14.01,2013-04-05 18:49:00,
2013-04-05 13:54:00,40.8,24.5,30.19,SE,138,5.0,12.0,52,0.00,,,0.00,VWS V14.01,2013-04-05 18:54:00,
2013-04-05 14:00:00,40.7,24.9,30.19,ESE,114,0.0,12.0,53,0.00,,,0.00,VWS V14.01,2013-04-05 19:00:00,
2013-04-05 14:05:00,40.6,25.3,30.19,SSE,168,12.0,14.0,54,0.00,,,0.00,VWS V14.01,2013-04-05 19:05:00,
2013-04-05 14:11:00,40.2,26.2,30.18,East,100,7.0,14.0,57,0.00,,,0.00,VWS V14.01,2013-04-05 19:11:00,
2013-04-05 14:17:00,39.6,27.3,30.18,SSE,162,6.0,14.0,61,0.00,,,0.00,VWS V14.01,2013-04-05 19:17:00,
2013-04-05 14:22:00,39.0,28.2,30.19,East,100,6.0,15.0,65,0.00,,,0.00,VWS V14.01,2013-04-05 19:22:00,
2013-04-05 14:27:00,38.2,29.3,30.18,SE,141,13.0,15.0,70,0.00,,,0.00,VWS V14.01,2013-04-05 19:27:00,
2013-04-05 14:30:00,37.6,29.4,30.18,ESE,119,10.0,15.0,72,0.00,,,0.00,VWS V15.00,2013-04-05 19:30:00,
2013-04-05 14:33:00,37.1,29.3,30.18,SE,139,11.0,15.0,73,0.00,,,0.00,VWS V14.01,2013-04-05 19:33:00,
2013-04-05 14:38:00,36.2,29.7,30.18,ESE,118,9.0,15.0,77,0.00,,,0.00,VWS V14.01,2013-04-05 19:38:00,
2013-04-05 14:43:00,35.7,29.5,30.18,ESE,110,7.0,15.0,78,0.00,,,0.00,VWS V14.01,2013-04-05 19:43:00,
2013-04-05 14:49:00,35.3,29.5,30.17,ESE,106,7.0,15.0,79,0.00,,,0.00,VWS V14.01,2013-04-05 19:49:00,
2013-04-05 14:54:00,35.1,29.6,30.17,East,94,2.0,15.0,80,0.00,,,0.00,VWS V14.01,2013-04-05 19:54:00,
2013-04-05 14:59:00,34.6,29.4,30.17,ESE,114,11.0,15.0,81,0.00,,,0.00,VWS V14.01,2013-04-05 19:59:00,
2013-04-05 15:05:00,34.5,29.6,30.16,ESE,115,11.0,11.0,82,0.00,,,0.00,VWS V14.01,2013-04-05 20:05:00,
2013-04-05 15:10:00,34.5,29.6,30.16,East,96,3.0,11.0,82,0.00,,,0.00,VWS V14.01,2013-04-05 20:10:00,
2013-04-05 15:16:00,34.6,29.7,30.16,ESE,112,4.0,11.0,82,0.00,,,0.00,VWS V14.01,2013-04-05 20:16:00,
2013-04-05 15:21:00,34.6,29.7,30.16,ESE,114,5.0,11.0,82,0.00,,,0.00,VWS V14.01,2013-04-05 20:21:00,
2013-04-05 15:27:00,34.4,29.8,30.15,East,88,4.0,11.0,83,0.00,,,0.00,VWS V14.01,2013-04-05 20:27:00,
2013-04-05 15:32:00,34.3,29.7,30.14,ESE,119,9.0,9.0,83,0.00,,,0.00,VWS V14.01,2013-04-05 20:32:00,
2013-04-05 15:37:00,34.1,29.5,30.14,East,100,3.0,12.0,83,0.00,,,0.00,VWS V14.01,2013-04-05 20:37:00,
2013-04-05 15:43:00,34.0,29.7,30.14,East,85,7.0,12.0,84,0.00,,,0.00,VWS V14.01,2013-04-05 20:43:00,
2013-04-05 15:48:00,34.0,29.7,30.14,East,90,4.0,12.0,84,0.00,,,0.00,VWS V14.01,2013-04-05 20:48:00,
2013-04-05 15:53:00,33.9,29.9,30.13,East,100,10.0,12.0,85,0.00,,,0.00,VWS V14.01,2013-04-05 20:53:00,
2013-04-05 15:59:00,33.9,29.9,30.12,East,96,6.0,12.0,85,0.00,,,0.00,VWS V14.01,2013-04-05 20:59:00,
2013-04-05 16:00:00,33.9,29.9,30.12,East,100,6.0,12.0,85,0.00,,,0.00,VWS V15.00,2013-04-05 21:00:00,
2013-04-05 16:04:00,33.9,29.9,30.12,ESE,122,10.0,13.0,85,0.00,,,0.00,VWS V14.01,2013-04-05 21:04:00,
2013-04-05 16:10:00,34.1,30.4,30.10,ESE,106,16.0,16.0,86,0.00,,,0.00,VWS V14.01,2013-04-05 21:10:00,
2013-04-05 16:15:00,34.2,30.5,30.10,ENE,76,11.0,16.0,86,0.00,,,0.00,VWS V14.01,2013-04-05 21:15:00,
2013-04-05 16:21:00,34.3,30.6,30.12,East,94,4.0,16.0,86,0.00,,,0.00,VWS V14.01,2013-04-05 21:21:00,
2013-04-05 16:26:00,34.3,30.6,30.11,ESE,111,11.0,16.0,86,0.00,,,0.00,VWS V14.01,2013-04-05 21:26:00,
2013-04-05 16:31:00,34.3,30.6,30.10,ESE,116,11.0,11.0,86,0.01,,,0.01,VWS V14.01,2013-04-05 21:31:00,
2013-04-05 16:37:00,34.4,30.6,30.10,ESE,114,11.0,13.0,86,0.01,,,0.01,VWS V14.01,2013-04-05 21:37:00,
2013-04-05 16:42:00,34.5,30.8,30.11,East,94,1.0,13.0,86,0.02,,,0.02,VWS V14.01,2013-04-05 21:42:00,
2013-04-05 16:48:00,34.5,32.4,30.11,East,101,10.0,14.0,92,0.02,,,0.02,VWS V14.01,2013-04-05 21:48:00,
2013-04-05 16:53:00,34.4,30.6,30.10,ESE,106,6.0,14.0,86,0.02,,,0.02,VWS V14.01,2013-04-05 21:53:00,
2013-04-05 16:58:00,34.4,30.6,30.10,ESE,106,13.0,14.0,86,0.02,,,0.02,VWS V14.01,2013-04-05 21:58:00,
2013-04-05 17:04:00,34.4,30.6,30.09,ESE,111,11.0,14.0,86,0.02,,,0.02,VWS V14.01,2013-04-05 22:04:00,
2013-04-05 17:09:00,34.4,30.6,30.08,East,96,7.0,18.0,86,0.02,,,0.02,VWS V14.01,2013-04-05 22:09:00,
2013-04-05 17:14:00,34.5,30.8,30.08,East,81,11.0,18.0,86,0.02,,,0.02,VWS V14.01,2013-04-05 22:14:00,
2013-04-05 17:20:00,34.5,30.8,30.07,ESE,112,12.0,18.0,86,0.02,,,0.02,VWS V14.01,2013-04-05 22:20:00,
2013-04-05 17:25:00,34.6,30.9,30.07,East,90,7.0,18.0,86,0.02,,,0.02,VWS V14.01,2013-04-05 22:25:00,
2013-04-05 17:30:00,34.7,31.0,30.06,East,101,13.0,18.0,86,0.02,,,0.02,VWS V14.01,2013-04-05 22:30:00,
2013-04-05 17:36:00,34.7,31.0,30.06,ESE,116,11.0,15.0,86,0.02,,,0.03,VWS V14.01,2013-04-05 22:36:00,
2013-04-05 17:42:00,34.8,31.0,30.05,East,100,6.0,16.0,86,0.02,,,0.03,VWS V14.01,2013-04-05 22:42:00,
2013-04-05 17:47:00,34.7,31.0,30.05,East,100,10.0,16.0,86,0.02,,,0.03,VWS V14.01,2013-04-05 22:47:00,
2013-04-05 17:52:00,34.8,31.0,30.05,East,79,7.0,16.0,86,0.02,,,0.03,VWS V14.01,2013-04-05 22:52:00,
2013-04-05 17:58:00,34.8,31.0,30.06,East,81,4.0,17.0,86,0.02,,,0.03,VWS V14.01,2013-04-05 22:58:00,
2013-04-05 18:00:00,34.8,31.0,30.06,ESE,111,7.0,17.0,86,0.02,,,0.03,VWS V15.00,2013-04-05 23:00:00,
2013-04-05 18:03:00,34.9,31.1,30.06,East,101,10.0,14.0,86,0.01,,,0.03,VWS V14.01,2013-04-05 23:03:00,
2013-04-05 18:08:00,35.0,31.0,30.06,NE,54,4.0,14.0,85,0.01,,,0.03,VWS V14.01,2013-04-05 23:08:00,
2013-04-05 18:14:00,35.0,31.0,30.05,East,84,6.0,16.0,85,0.01,,,0.03,VWS V14.01,2013-04-05 23:14:00,
2013-04-05 18:19:00,35.0,31.0,30.05,ENE,57,11.0,16.0,85,0.01,,,0.03,VWS V14.01,2013-04-05 23:19:00,
2013-04-05 18:24:00,35.0,31.0,30.04,East,83,4.0,16.0,85,0.01,,,0.03,VWS V14.01,2013-04-05 23:24:00,
2013-04-05 18:30:00,35.0,31.0,30.05,ENE,65,6.0,16.0,85,0.01,,,0.03,VWS V14.01,2013-04-05 23:30:00,
2013-04-05 18:35:00,35.0,31.0,30.04,ENE,71,5.0,13.0,85,0.01,,,0.03,VWS V14.01,2013-04-05 23:35:00,
2013-04-05 18:40:00,34.9,30.9,30.02,ENE,64,8.0,13.0,85,0.01,,,0.03,VWS V14.01,2013-04-05 23:40:00,
2013-04-05 18:47:00,34.9,30.9,30.02,East,96,7.0,17.0,85,0.01,,,0.03,VWS V14.01,2013-04-05 23:47:00,
2013-04-05 18:52:00,34.9,30.9,30.02,ESE,102,9.0,17.0,85,0.01,,,0.03,VWS V14.01,2013-04-05 23:52:00,
2013-04-05 18:58:00,35.0,31.0,30.03,ESE,108,15.0,19.0,85,0.01,,,0.03,VWS V14.01,2013-04-05 23:58:00,
2013-04-05 19:03:00,35.1,31.0,30.03,ESE,108,9.0,14.0,85,0.00,,,0.03,VWS V14.01,2013-04-06 00:03:00,
2013-04-05 19:09:00,35.1,31.0,30.03,East,89,3.0,16.0,85,0.00,,,0.03,VWS V14.01,2013-04-06 00:09:00,
2013-04-05 19:14:00,35.2,31.1,30.03,East,90,12.0,16.0,85,0.00,,,0.03,VWS V14.01,2013-04-06 00:14:00,
2013-04-05 19:20:00,35.2,30.9,30.03,ENE,77,10.0,17.0,84,0.00,,,0.03,VWS V14.01,2013-04-06 00:20:00,
2013-04-05 19:25:00,35.2,30.9,30.03,East,81,10.0,17.0,84,0.00,,,0.03,VWS V14.01,2013-04-06 00:25:00,
2013-04-05 19:30:00,35.2,30.9,30.03,East,90,8.0,17.0,84,0.00,,,0.03,VWS V14.01,2013-04-06 00:30:00,
2013-04-05 19:35:00,35.2,30.9,30.03,East,97,6.0,15.0,84,0.00,,,0.03,VWS V14.01,2013-04-06 00:35:00,
2013-04-05 19:40:00,35.1,30.8,30.03,East,86,0.0,15.0,84,0.00,,,0.03,VWS V14.01,2013-04-06 00:40:00,
2013-04-05 19:47:00,35.1,30.8,30.03,ESE,112,3.0,15.0,84,0.00,,,0.03,VWS V14.01,2013-04-06 00:47:00,
2013-04-05 19:52:00,35.1,30.8,30.03,ESE,106,6.0,15.0,84,0.00,,,0.03,VWS V14.01,2013-04-06 00:52:00,
2013-04-05 19:57:00,35.1,30.8,30.03,ENE,76,8.0,15.0,84,0.00,,,0.03,VWS V14.01,2013-04-06 00:57:00,
2013-04-05 20:02:00,35.0,30.7,30.02,East,83,5.0,14.0,84,0.00,,,0.03,VWS V14.01,2013-04-06 01:02:00,
2013-04-05 20:08:00,35.0,30.7,30.02,NE,36,4.0,15.0,84,0.00,,,0.03,VWS V14.01,2013-04-06 01:08:00,
2013-04-05 20:13:00,35.0,30.7,30.01,ENE,63,5.0,15.0,84,0.00,,,0.03,VWS V14.01,2013-04-06 01:13:00,
2013-04-05 20:18:00,35.0,30.7,30.02,ENE,68,5.0,15.0,84,0.00,,,0.03,VWS V14.01,2013-04-06 01:18:00,
2013-04-05 20:24:00,35.0,30.7,30.01,East,81,4.0,15.0,84,0.00,,,0.03,VWS V14.01,2013-04-06 01:24:00,
2013-04-05 20:30:00,35.0,31.0,30.01,East,83,6.0,16.0,85,0.00,,,0.03,VWS V14.01,2013-04-06 01:30:00,
2013-04-05 20:35:00,35.0,31.0,30.01,ENE,65,5.0,14.0,85,0.00,,,0.03,VWS V14.01,2013-04-06 01:35:00,
2013-04-05 20:40:00,35.0,31.0,30.01,East,97,7.0,14.0,85,0.00,,,0.03,VWS V14.01,2013-04-06 01:40:00,
2013-04-05 20:45:00,34.9,30.9,30.00,ENE,69,7.0,14.0,85,0.00,,,0.03,VWS V14.01,2013-04-06 01:45:00,
2013-04-05 20:51:00,34.9,30.9,30.00,East,90,3.0,14.0,85,0.00,,,0.03,VWS V14.01,2013-04-06 01:51:00,
2013-04-05 20:56:00,34.9,30.9,30.01,East,81,9.0,14.0,85,0.00,,,0.03,VWS V14.01,2013-04-06 01:56:00,
2013-04-05 21:02:00,34.9,30.9,30.00,ESE,119,7.0,12.0,85,0.00,,,0.03,VWS V14.01,2013-04-06 02:02:00,
2013-04-05 21:07:00,35.0,31.0,30.00,ESE,112,13.0,13.0,85,0.00,,,0.03,VWS V14.01,2013-04-06 02:07:00,
2013-04-05 21:12:00,35.0,31.0,30.00,ENE,70,2.0,13.0,85,0.00,,,0.03,VWS V14.01,2013-04-06 02:12:00,
2013-04-05 21:18:00,35.0,31.0,30.00,ESE,110,11.0,17.0,85,0.00,,,0.03,VWS V14.01,2013-04-06 02:18:00,
2013-04-05 21:23:00,35.0,31.0,29.99,East,100,12.0,17.0,85,0.00,,,0.03,VWS V14.01,2013-04-06 02:23:00,
2013-04-05 21:29:00,35.1,31.0,29.99,SE,124,5.0,17.0,85,0.00,,,0.03,VWS V14.01,2013-04-06 02:29:00,
2013-04-05 21:35:00,35.2,31.1,29.99,ESE,118,6.0,16.0,85,0.00,,,0.03,VWS V14.01,2013-04-06 02:35:00,
2013-04-05 21:40:00,35.2,31.1,29.99,NE,48,9.0,16.0,85,0.00,,,0.03,VWS V14.01,2013-04-06 02:40:00,
2013-04-05 21:46:00,35.2,31.1,29.98,ENE,75,16.0,17.0,85,0.00,,,0.03,VWS V14.01,2013-04-06 02:46:00,
2013-04-05 21:51:00,35.2,30.9,29.98,ESE,119,12.0,22.0,84,0.00,,,0.03,VWS V14.01,2013-04-06 02:51:00,
2013-04-05 21:57:00,35.2,30.9,29.97,ESE,121,7.0,22.0,84,0.00,,,0.03,VWS V14.01,2013-04-06 02:57:00,
2013-04-05 22:02:00,35.2,30.9,29.96,ESE,107,10.0,18.0,84,0.00,,,0.03,VWS V14.01,2013-04-06 03:02:00,
2013-04-05 22:07:00,35.2,30.9,29.96,ENE,78,7.0,21.0,84,0.00,,,0.03,VWS V14.01,2013-04-06 03:07:00,
2013-04-05 22:13:00,35.3,31.0,29.96,East,92,11.0,21.0,84,0.00,,,0.03,VWS V14.01,2013-04-06 03:13:00,
2013-04-05 22:19:00,35.3,31.0,29.96,ESE,108,13.0,21.0,84,0.00,,,0.03,VWS V14.01,2013-04-06 03:19:00,
2013-04-05 22:25:00,35.3,31.0,29.96,ENE,76,6.0,21.0,84,0.00,,,0.03,VWS V14.01,2013-04-06 03:25:00,
2013-04-05 22:30:00,35.4,31.1,29.95,East,94,13.0,21.0,84,0.00,,,0.03,VWS V14.01,2013-04-06 03:30:00,
2013-04-05 22:35:00,35.5,31.1,29.95,East,79,15.0,20.0,84,0.00,,,0.03,VWS V14.01,2013-04-06 03:35:00,
2013-04-05 22:40:00,35.5,31.1,29.94,ENE,78,9.0,20.0,84,0.00,,,0.03,VWS V14.01,2013-04-06 03:40:00,
2013-04-05 22:45:00,35.5,31.1,29.94,East,94,9.0,20.0,84,0.00,,,0.03,VWS V14.01,2013-04-06 03:45:00,
2013-04-05 22:50:00,35.5,31.1,29.94,East,101,6.0,20.0,84,0.00,,,0.03,VWS V14.01,2013-04-06 03:50:00,
2013-04-05 22:56:00,35.6,31.2,29.93,ENE,66,4.0,20.0,84,0.00,,,0.03,VWS V14.01,2013-04-06 03:56:00,
2013-04-05 23:00:00,35.7,31.0,29.93,East,94,7.0,20.0,83,0.00,,,0.03,VWS V14.01,2013-04-06 04:00:00,
2013-04-05 23:01:00,35.7,31.0,29.93,ENE,77,9.0,20.0,83,0.00,,,0.03,VWS V14.01,2013-04-06 04:01:00,
2013-04-05 23:06:00,35.8,31.1,29.92,East,91,14.0,20.0,83,0.00,,,0.03,VWS V14.01,2013-04-06 04:06:00,
2013-04-05 23:12:00,35.9,31.2,29.92,East,93,8.0,20.0,83,0.00,,,0.03,VWS V14.01,2013-04-06 04:12:00,
2013-04-05 23:17:00,35.9,31.2,29.92,ESE,117,6.0,20.0,83,0.00,,,0.03,VWS V14.01,2013-04-06 04:17:00,
2013-04-05 23:23:00,36.1,31.1,29.91,ESE,112,8.0,22.0,82,0.00,,,0.03,VWS V14.01,2013-04-06 04:23:00,
2013-04-05 23:28:00,36.2,31.2,29.91,East,97,6.0,22.0,82,0.00,,,0.03,VWS V14.01,2013-04-06 04:28:00,
2013-04-05 23:33:00,36.3,31.3,29.91,ESE,107,8.0,19.0,82,0.00,,,0.03,VWS V14.01,2013-04-06 04:33:00,
2013-04-05 23:39:00,36.4,31.4,29.90,ENE,78,6.0,20.0,82,0.00,,,0.03,VWS V14.01,2013-04-06 04:39:00,
2013-04-05 23:44:00,36.4,31.4,29.90,ESE,108,3.0,21.0,82,0.00,,,0.03,VWS V14.01,2013-04-06 04:44:00,
2013-04-05 23:50:00,36.4,31.4,29.90,ESE,104,5.0,21.0,82,0.00,,,0.03,VWS V14.01,2013-04-06 04:50:00,
2013-04-05 23:55:00,36.3,31.3,29.89,ESE,111,13.0,21.0,82,0.00,,,0.03,VWS V14.01,2013-04-06 04:55:00,